Bangor, ME

10:52 AM EST on December 14, 2019 (GMT -0500)
Bangor International

Weather History for KBGR - October, 2019

Change the Weather History Date:

Saturday, October 5, 2019

  Actual Average Record
Temperature  
Mean Temperature 47 °F 51 °F  
Max Temperature 60 °F 62 °F 81 °F (1946)
Min Temperature 34 °F 40 °F 22 °F (1940)
Degree Days  
Heating Degree Days 18 14  
Month to date heating degree days 83 66  
Since 1 July heating degree days 297 338  
Cooling Degree Days 0 0  
Month to date cooling degree days 0 0  
Year to date cooling degree days 336 317  
Moisture  
Dew Point 33 °F    
Average Humidity 66    
Maximum Humidity 100    
Minimum Humidity 32    
Precipitation  
Precipitation 0.00 in 0.14 in 1.30 in (1985)
Month to date precipitation 0.51 0.70  
Year to date precipitation 39.53 30.78  
Snow  
Snow 0.00 in 0.00 in 0.00 in (2002)
Month to date snowfall 0.0 0.0  
Since 1 July snowfall 0.0 0.0  
Since 1 September snowfall 0.0 0.0  
Snow Depth 0.00 in    
Sea Level Pressure  
Sea Level Pressure 30.34 in    
Wind  
Wind Speed 6 mph (NW)    
Max Wind Speed 15 mph    
Max Gust Speed 20 mph    
Visibility 10 miles    
Events      
T = Trace of Precipitation, MM = Missing Value Source: NWS Daily Summary

Daily Weather History Graph

Daily Weather History Graph

Search for Another Location

Airport or City:

Astronomy

Oct. 05, 2019 Rise Set
Actual Time 6:37 AM EDT 6:08 PM EDT
Civil Twilight 6:08 AM EDT 6:38 PM EDT
Nautical Twilight 5:34 AM EDT 7:11 PM EDT
Astronomical Twilight 5:00 AM EDT 7:46 PM EDT
Moon 2:14 PM EDT (10/5) 11:14 PM EDT (10/5)
Length of Visible Light 12h 29m
Length of Day
11h 31m
Waxing Crescent, 50% of the Moon is Illuminated
Oct 5
Waxing Crescent
Oct 5
First Quarter
Oct 13
Full
Oct 21
Last Quarter
Oct 27
New

Hourly Weather History & Observations

Time (EDT) Temp. Windchill Dew Point Humidity Pressure Visibility Wind Dir Wind Speed Gust Speed Precip Events Conditions
12:53 AM 39.0 °F 34.0 °F 30.9 °F 73% 30.26 in 10.0 mi West 6.9 mph - N/A   Clear
1:53 AM 37.9 °F 32.7 °F 30.9 °F 76% 30.27 in 10.0 mi WNW 6.9 mph - N/A   Clear
2:53 AM 37.9 °F 32.1 °F 30.0 °F 73% 30.28 in 10.0 mi WNW 8.1 mph - N/A   Clear
3:53 AM 37.0 °F 32.4 °F 30.9 °F 79% 30.30 in 10.0 mi WNW 5.8 mph - N/A   Clear
4:53 AM 35.1 °F 31.0 °F 30.9 °F 85% 30.32 in 10.0 mi NW 4.6 mph - N/A   Clear
5:53 AM 37.0 °F 32.4 °F 32.0 °F 82% 30.34 in 10.0 mi WNW 5.8 mph - N/A   Clear
6:53 AM 36.0 °F 31.1 °F 30.9 °F 82% 30.36 in 10.0 mi West 5.8 mph - N/A   Clear
7:53 AM 37.9 °F 34.4 °F 32.0 °F 79% 30.38 in 10.0 mi West 4.6 mph - N/A   Clear
8:53 AM 43.0 °F 38.8 °F 35.1 °F 74% 30.39 in 10.0 mi Variable 6.9 mph - N/A   Clear
9:53 AM 46.9 °F - 34.0 °F 61% 30.40 in 10.0 mi NNW 9.2 mph - N/A   Partly Cloudy
10:53 AM 50.0 °F - 35.1 °F 57% 30.39 in 10.0 mi NNW 11.5 mph - N/A   Partly Cloudy
11:53 AM 52.0 °F - 34.0 °F 50% 30.37 in 10.0 mi NW 12.7 mph - N/A   Clear
12:53 PM 55.0 °F - 33.1 °F 43% 30.35 in 10.0 mi NNW 10.4 mph - N/A   Clear
1:53 PM 55.9 °F - 32.0 °F 40% 30.33 in 10.0 mi NW 8.1 mph 17.3 mph N/A   Clear
2:53 PM 59.0 °F - 30.0 °F 33% 30.32 in 10.0 mi North 11.5 mph - N/A   Clear
3:53 PM 60.1 °F - 30.0 °F 32% 30.32 in 10.0 mi NNW 10.4 mph - N/A   Clear
4:53 PM 57.9 °F - 30.9 °F 36% 30.32 in 10.0 mi NW 9.2 mph - N/A   Clear
5:53 PM 50.0 °F - 36.0 °F 59% 30.32 in 10.0 mi Calm Calm - N/A   Clear
6:53 PM 45.0 °F - 37.9 °F 76% 30.33 in 10.0 mi Calm Calm - N/A   Clear
7:53 PM 42.1 °F - 36.0 °F 79% 30.34 in 10.0 mi Calm Calm - N/A   Clear
8:53 PM 39.9 °F - 37.0 °F 89% 30.35 in 10.0 mi Calm Calm - N/A   Clear
9:53 PM 41.0 °F - 37.9 °F 89% 30.36 in 10.0 mi Calm Calm - N/A   Clear
10:53 PM 36.0 °F 33.3 °F 35.1 °F 97% 30.36 in 10.0 mi ESE 3.5 mph - N/A   Clear
11:53 PM 37.9 °F - 36.0 °F 93% 30.36 in 10.0 mi Calm Calm - N/A   Clear